[[{"header":{"parameterUnit":"m.s-1","parameterCategory":1,"la1":30.2991,"la2":30.254,"lo1":-89.0895,"lo2":-89.0444,"dy":0.0017,"dx":0.0017,"nx":28,"ny":28,"refTime":"2025-12-16T09:00:00:Z","depth":0,"parameterNumber":2,"parameterNumberName":"U-component_of_WINDS"},"data":[0,0,0,0,0,0,0,0,0,0,0,0,0,0,0,0,0,0,0,0,0,0,0,0,0,0,0,0,0,0,0,0,0,0,0,0,0,0,0,0,0,0,0,0,0,0,0,0,0,0,0,0,0,0,0,0,0,0,-4.1708,-4.1709,0,-4.1772,-4.1773,-4.1774,-4.1673,-4.167,-4.1666,-4.1663,-4.1727,-4.1732,-4.1737,0,0,0,0,0,0,0,0,0,0,0,0,0,-4.1499,-4.1503,-4.1708,-4.1709,-4.171,-4.1772,-4.1773,-4.1774,-4.1674,-4.167,-4.1665,-4.1661,-4.1726,-4.1732,-4.1737,0,0,0,0,0,0,0,0,0,0,0,0,0,-4.1579,-4.1505,-4.1708,-4.1668,-4.1665,-4.1772,-4.1773,-4.1774,-4.1675,-4.167,-4.1664,-4.1659,-4.1724,-4.1731,-4.1738,-4.1888,0,0,-4.1761,-4.1764,0,0,0,0,0,0,0,0,-4.1575,-4.1587,-4.1673,-4.1671,-4.1667,-4.171,-4.1723,-4.1812,-4.1676,-4.1671,-4.1663,-4.1657,-4.1726,-4.1732,-4.1756,-4.1891,-4.1894,-4.1762,-4.1766,-4.1769,-4.1771,0,0,0,0,0,0,0,-4.1569,-4.1583,-4.1734,-4.1674,-4.1671,-4.1646,-4.1652,-4.1739,-4.1727,-4.1671,-4.1664,-4.1673,-4.1723,-4.1749,-4.1757,-4.1895,-4.1761,-4.1768,-4.1773,-4.1775,-4.2156,-4.2161,0,0,0,0,0,0,-4.1569,-4.1579,-4.1732,-4.1735,-4.1607,-4.1654,-4.166,-4.1701,-4.1725,-4.1724,-4.1677,-4.1668,-4.1739,-4.1748,-4.1758,-4.1934,-4.1769,-4.1776,-4.178,-4.215,-4.2157,-4.2163,0,0,0,0,0,0,-4.1565,-4.1583,-4.1729,-4.1656,-4.1672,-4.1663,-4.171,-4.1705,-4.1731,-4.173,-4.1727,-4.1706,-4.1735,-4.1748,-4.1857,-4.1935,-4.1779,-4.1786,-4.2143,-4.2152,-4.216,-4.2287,0,0,0,0,0,0,-4.1559,-4.1582,-4.1639,-4.1658,-4.1677,-4.1827,-4.1715,-4.171,-4.1744,-4.1733,-4.1756,-4.1755,-4.1732,-4.1846,-4.1864,-4.1942,-4.1792,-4.2136,-4.2147,-4.2157,-4.2276,-4.2299,-4.2319,0,0,0,0,0,-4.1552,-4.1672,-4.1643,-4.1661,-4.1748,-4.1831,-4.1842,-4.1813,-4.1751,-4.1808,-4.1807,-4.1754,-4.1924,-4.1858,-4.1877,-4.1959,-4.2131,-4.2144,-4.2156,-4.2266,-4.2295,-4.2319,0,0,0,0,0,0,-4.1662,-4.1674,-4.1641,-4.1771,-4.1801,-4.1814,-4.1884,-4.1844,-4.1892,-4.1879,-4.1841,-4.1847,-4.1963,-4.1972,-4.1898,-4.2105,-4.2017,-4.2034,-4.2094,-4.2121,-4.2142,-4.2136,-4.1798,0,0,0,0,0,-4.1702,-4.177,-4.1776,-4.189,-4.1907,-4.1894,-4.1929,-4.1905,-4.1934,-4.1946,-4.1953,-4.1983,-4.2043,-4.2083,-4.2138,-4.2278,-4.2281,-4.2344,-4.2366,-4.2383,-4.2397,-4.2471,-4.2499,-4.2205,-4.2205,-4.2204,0,0,-4.1785,-4.1799,-4.1844,-4.1913,-4.1933,-4.2003,-4.1905,-4.1983,-4.2034,-4.1957,-4.2059,-4.2067,-4.2098,-4.2223,-4.2278,-4.2234,-4.248,-4.24,-4.2414,-4.2418,-4.2487,-4.2515,-4.2539,-4.2213,-4.2212,-4.221,0,0,-4.1969,-4.1989,-4.2085,-4.2108,-4.214,-4.2131,-4.2154,-4.2174,-4.2176,-4.2278,-4.2222,-4.2283,-4.2387,-4.2411,-4.2437,-4.2634,-4.2586,-4.2653,-4.2763,-4.2836,-4.2859,-4.2879,-4.2947,-4.2972,-4.2668,-4.2668,-4.2668,0,-4.2067,-4.217,-4.214,-4.2222,-4.2254,-4.2189,-4.2286,-4.2309,-4.2358,-4.2381,-4.2332,-4.2461,-4.2478,-4.2606,-4.2655,-4.2679,-4.2703,-4.2648,-4.2858,-4.2878,-4.2896,-4.2961,-4.2987,-4.2676,-4.2675,-4.2674,-4.2673,0,-4.2288,-4.2361,-4.2435,-4.2484,-4.2525,-4.2614,-4.2596,-4.2641,-4.2614,-4.261,-4.2716,-4.2734,-4.2791,-4.282,-4.2795,-4.2946,-4.2917,-4.2864,-4.2774,-4.2933,-4.2992,-4.3017,-4.2687,-4.2684,-4.2682,-4.268,0,0,-4.2541,-4.2573,-4.2601,-4.2622,-4.2654,-4.2709,-4.2796,-4.2853,-4.2891,-4.2928,-4.2999,-4.309,-4.3041,-4.307,-4.3047,-4.3111,-4.3263,-4.3049,-4.3049,-4.3086,-4.3429,-4.3467,-4.3496,-4.3234,-4.3238,-4.3242,-4.3426,0,-4.2723,-4.2873,-4.2848,-4.2993,-4.3059,-4.3,-4.3075,-4.3103,-4.3102,-4.3158,-4.3157,-4.3221,-4.3153,-4.317,-4.3231,-4.3232,-4.3331,-4.3219,-4.3297,-4.3301,-4.3288,-4.3527,-4.3567,-4.3739,-4.3449,-4.3453,-4.3456,0,-4.2955,-4.3,-4.3151,-4.3173,-4.32,-4.3268,-4.3318,-4.3373,-4.3403,-4.3398,-4.3433,-4.3398,-4.3484,-4.3396,-4.3514,-4.3438,-4.347,-4.3475,-4.3481,-4.3484,-4.3385,-4.3534,-4.3794,-4.3818,-4.3493,-4.349,-4.3487,0,-4.3121,-4.322,-4.3323,-4.3344,-4.3372,-4.3421,-4.3435,-4.3461,-4.3496,-4.3541,-4.3563,-4.3617,-4.3646,-4.3689,-4.3669,-4.3608,-4.3791,-4.3701,-4.3787,-4.3788,-4.3825,-4.3822,-4.409,-4.3852,-4.3851,-4.3851,-4.385,0,-4.3324,-4.3418,-4.3398,-4.3461,-4.3565,-4.3537,-4.364,-4.3647,-4.3671,-4.3734,-4.3687,-4.3747,-4.372,-4.3778,-4.3765,-4.3863,-4.3877,-4.3875,-4.3869,-4.3877,-4.3877,-4.3894,-4.388,-4.3857,-4.3856,-4.3855,-4.3853,0,-4.3525,-4.3516,-4.3623,-4.3642,-4.3649,-4.3725,-4.3741,-4.3799,-4.3797,-4.3877,-4.3894,-4.3889,-4.3956,-4.3942,-4.4015,-4.4005,-4.4129,-4.411,-4.4118,-4.4112,-4.4198,-4.4189,-4.4483,-4.452,-4.4261,-4.4264,-4.4266,0,-4.3654,-4.3725,-4.3752,-4.3791,-4.3809,-4.3873,-4.3909,-4.3886,-4.3925,-4.3966,-4.402,-4.4083,-4.4131,-4.424,-4.4242,-4.4298,-4.4278,-4.4378,-4.4286,-4.4292,-4.4276,-4.4271,-4.4277,-4.4395,-4.4398,-4.44,-4.4402,0,-4.3883,-4.3875,-4.3929,-4.3983,-4.4028,-4.4069,-4.4105,-4.414,-4.4119,-4.4167,-4.4234,-4.4272,-4.4347,-4.4409,-4.4461,-4.4475,-4.4435,-4.4432,-4.4454,-4.4461,-4.4461,-4.4459,-4.4164,-4.4424,-4.4422,-4.442,-4.4419,-4.4418,-4.4049,-4.4109,-4.4138,-4.42,-4.4225,-4.4261,-4.4317,-4.4322,-4.4378,-4.4436,-4.442,-4.4496,-4.4526,-4.4592,-4.4612,-4.4671,-4.4634,-4.4667,-4.4675,-4.4682,-4.4692,-4.4455,-4.4681,-4.4681,-4.468,-4.468,-4.4679,0,-4.4273,-4.4289,-4.4347,-4.4399,-4.4449,-4.4409,-4.4448,-4.4491,-4.4559,-4.459,-4.4639,-4.4717,-4.4778,-4.4786,-4.4843,-4.4889,-4.4872,-4.4905,-4.4899,-4.4903,-4.4723,-4.4697,-4.4917,-4.4917,-4.4917,-4.4917,-4.4917,-4.4917,-4.4395,-4.4494,-4.449,-4.4601,-4.4616,-4.4691,-4.4716,-4.4748,-4.4773,-4.4862,-4.4912,-4.4918,-4.494,-4.4999,-4.5052,-4.5053,-4.5075,-4.5114,-4.5108,-4.4939,-4.4915,-4.4893,-4.4867,-4.512,-4.5121,-4.5282,-4.5284,-4.5285]},{"header":{"parameterUnit":"m.s-1","parameterCategory":1,"la1":30.2991,"la2":30.254,"lo1":-89.0895,"lo2":-89.0444,"dy":0.0017,"dx":0.0017,"nx":28,"ny":28,"refTime":"2025-12-16T09:00:00:Z","depth":0,"parameterNumber":3,"parameterNumberName":"V-component_of_WINDS"},"data":[0,0,0,0,0,0,0,0,0,0,0,0,0,0,0,0,0,0,0,0,0,0,0,0,0,0,0,0,0,0,0,0,0,0,0,0,0,0,0,0,0,0,0,0,0,0,0,0,0,0,0,0,0,0,0,0,0,0,0.9399,0.9398,0,0.9382,0.9382,0.9381,0.9331,0.933,0.9329,0.9327,0.9308,0.9309,0.9309,0,0,0,0,0,0,0,0,0,0,0,0,0,0.9386,0.9387,0.9399,0.9398,0.9398,0.9382,0.9382,0.9381,0.9331,0.933,0.9328,0.9327,0.9308,0.9308,0.9309,0,0,0,0,0,0,0,0,0,0,0,0,0,0.9383,0.9387,0.9399,0.9371,0.9368,0.9382,0.9382,0.9381,0.9331,0.933,0.9328,0.9326,0.9308,0.9308,0.9309,0.9347,0,0,0.9312,0.9312,0,0,0,0,0,0,0,0,0.9383,0.9383,0.9375,0.9373,0.937,0.9357,0.937,0.937,0.9332,0.9345,0.9327,0.9326,0.9325,0.9325,0.9325,0.9346,0.9345,0.9312,0.9312,0.9312,0.9313,0,0,0,0,0,0,0,0.9383,0.9384,0.9392,0.9375,0.9372,0.9359,0.9357,0.937,0.9345,0.9344,0.934,0.9339,0.9324,0.9324,0.9324,0.9345,0.9312,0.9312,0.9313,0.9313,0.9399,0.9401,0,0,0,0,0,0,0.9388,0.9384,0.9392,0.9391,0.9373,0.9361,0.9358,0.9363,0.9345,0.934,0.9341,0.9337,0.9324,0.9323,0.9323,0.9368,0.9312,0.9313,0.9314,0.9397,0.9399,0.9401,0,0,0,0,0,0,0.9388,0.9389,0.9393,0.9387,0.9386,0.9363,0.9368,0.9363,0.9364,0.9342,0.9337,0.9346,0.9323,0.9322,0.9342,0.9366,0.9313,0.9314,0.9395,0.9398,0.94,0.9456,0,0,0,0,0,0,0.9388,0.9389,0.9403,0.9388,0.9387,0.9412,0.937,0.9364,0.9366,0.9361,0.9346,0.9342,0.9321,0.9341,0.9343,0.9366,0.9315,0.9393,0.9396,0.94,0.9452,0.9461,0.9468,0,0,0,0,0,0.9387,0.9419,0.9404,0.9405,0.9404,0.9414,0.9413,0.939,0.9368,0.9382,0.9368,0.9342,0.9364,0.9344,0.9345,0.9369,0.9391,0.9395,0.9399,0.9449,0.9459,0.9468,0,0,0,0,0,0,0.9436,0.9416,0.94,0.9427,0.9423,0.9405,0.9422,0.9401,0.9402,0.9398,0.9368,0.9365,0.939,0.9381,0.936,0.9406,0.9373,0.9378,0.941,0.942,0.9428,0.9428,0.9315,0,0,0,0,0,0.945,0.946,0.9442,0.9468,0.9467,0.9445,0.9448,0.9431,0.9425,0.9423,0.941,0.9405,0.9411,0.9415,0.9419,0.9451,0.9448,0.9469,0.9477,0.9483,0.9487,0.9505,0.9514,0.9415,0.9415,0.9415,0,0,0.9479,0.9469,0.9477,0.9478,0.9472,0.9483,0.9444,0.9457,0.9465,0.9424,0.9443,0.9434,0.9427,0.9454,0.9465,0.9447,0.9514,0.9488,0.9494,0.9494,0.951,0.952,0.9528,0.9418,0.9417,0.9417,0,0,0.9537,0.9531,0.9552,0.9549,0.9542,0.9528,0.9533,0.952,0.9513,0.9531,0.9502,0.9511,0.9522,0.9518,0.9517,0.9578,0.9554,0.958,0.962,0.9638,0.9646,0.9653,0.9675,0.9683,0.9585,0.9585,0.9585,0,0.9573,0.9589,0.9566,0.9581,0.9583,0.9549,0.9571,0.9568,0.9563,0.9565,0.9546,0.956,0.9552,0.9579,0.9594,0.9595,0.96,0.9581,0.9647,0.9654,0.966,0.968,0.9689,0.9588,0.9587,0.9587,0.9587,0,0.9634,0.9646,0.9664,0.9662,0.9666,0.9684,0.9664,0.9671,0.9654,0.9643,0.9663,0.9653,0.9655,0.9661,0.9644,0.9685,0.9675,0.9653,0.9618,0.9673,0.9692,0.9699,0.9592,0.9591,0.959,0.959,0,0,0.9719,0.9706,0.9713,0.9713,0.9705,0.9713,0.9731,0.9735,0.9741,0.974,0.9754,0.9766,0.9745,0.9745,0.9728,0.9744,0.9794,0.9719,0.9718,0.9733,0.984,0.9856,0.9866,0.9779,0.978,0.9781,0.984,0,0.9774,0.9805,0.9786,0.9819,0.983,0.98,0.9816,0.9813,0.9804,0.9812,0.9801,0.9809,0.9782,0.9782,0.9796,0.9785,0.9815,0.978,0.9792,0.9792,0.9794,0.9876,0.9893,0.9949,0.9848,0.9849,0.985,0,0.9841,0.9845,0.988,0.9872,0.9876,0.989,0.9894,0.9902,0.9898,0.989,0.9892,0.9872,0.9889,0.9858,0.9882,0.9859,0.9863,0.9858,0.986,0.9859,0.9823,0.9877,0.9966,0.9974,0.9861,0.986,0.9859,0,0.99,0.9914,0.9937,0.9937,0.9928,0.994,0.9936,0.9931,0.9936,0.9939,0.9941,0.9946,0.9948,0.9952,0.9934,0.9913,0.9961,0.9927,0.9955,0.9955,0.9965,0.9964,1.0055,0.9969,0.9969,0.9969,0.9969,0,0.9963,0.9986,0.9963,0.9977,1.0002,0.9981,1.0007,1.0,0.9997,1.0009,0.9984,0.9996,0.9972,0.9982,0.9968,0.999,0.9991,0.9985,0.9981,0.9987,0.9988,0.9988,0.9984,0.9971,0.997,0.997,0.997,0,1.0032,1.0018,1.0041,1.0032,1.0031,1.0049,1.0041,1.0054,1.0044,1.0061,1.0063,1.0047,1.0058,1.0041,1.0049,1.004,1.0072,1.0062,1.0073,1.007,1.0098,1.0096,1.0192,1.0204,1.0111,1.0112,1.0112,0,1.0072,1.0089,1.0083,1.009,1.0089,1.0101,1.0106,1.0087,1.0093,1.0092,1.0105,1.0115,1.012,1.0139,1.0128,1.0135,1.0125,1.0158,1.0125,1.0131,1.0125,1.0124,1.0126,1.0164,1.0165,1.0166,1.0167,0,1.0145,1.0139,1.0147,1.0155,1.0162,1.0166,1.0168,1.0176,1.0156,1.0164,1.0176,1.0181,1.0191,1.02,1.0205,1.0201,1.0181,1.0178,1.0185,1.019,1.0196,1.0193,1.0091,1.0175,1.0174,1.0174,1.0173,1.0173,1.0201,1.0215,1.0214,1.0225,1.0226,1.0229,1.0242,1.0235,1.0244,1.0252,1.024,1.0255,1.0253,1.0258,1.0257,1.0268,1.0254,1.0263,1.0265,1.0268,1.0272,1.0196,1.0269,1.0269,1.0269,1.0268,1.0268,0,1.0273,1.0271,1.0282,1.0287,1.0297,1.0279,1.0282,1.029,1.0304,1.0305,1.0313,1.0327,1.0337,1.0328,1.0336,1.0347,1.0338,1.035,1.0348,1.0348,1.0285,1.0278,1.0357,1.0357,1.0357,1.0357,1.0357,1.0357,1.0311,1.0335,1.0329,1.0353,1.0352,1.0367,1.037,1.0374,1.0375,1.0392,1.0401,1.0396,1.0393,1.0402,1.041,1.0407,1.0411,1.0426,1.042,1.0361,1.0352,1.0344,1.0338,1.0428,1.0428,1.0482,1.0483,1.0483]}]]